Time,TemperatureF,DewpointF,PressureIn,WindDirection,WindDirectionDegrees,WindSpeedMPH,WindSpeedGustMPH,Humidity,HourlyPrecipIn,Conditions,Clouds,dailyrainin,SoftwareType,DateUTC
2013-08-19 00:03:00,66.6,63.0,30.13,East,84,1.0,1.0,88,0.00,,,0.00,weatherlink.com 1.10,2013-08-19 05:03:00,
2013-08-19 00:18:00,66.6,63.0,30.13,East,84,0.0,2.0,88,0.00,,,0.00,weatherlink.com 1.10,2013-08-19 05:18:00,
2013-08-19 00:33:00,66.3,63.0,30.13,East,84,0.0,1.0,89,0.00,,,0.00,weatherlink.com 1.10,2013-08-19 05:33:00,
2013-08-19 00:48:00,65.9,63.0,30.14,East,84,0.0,3.0,90,0.00,,,0.00,weatherlink.com 1.10,2013-08-19 05:48:00,
2013-08-19 01:03:00,65.6,63.0,30.13,East,84,1.0,3.0,90,0.00,,,0.00,weatherlink.com 1.10,2013-08-19 06:03:00,
2013-08-19 01:18:00,65.1,63.0,30.13,East,84,0.0,0.0,91,0.00,,,0.00,weatherlink.com 1.10,2013-08-19 06:18:00,
2013-08-19 01:33:00,65.1,63.0,30.12,East,84,0.0,2.0,91,0.00,,,0.00,weatherlink.com 1.10,2013-08-19 06:33:00,
2013-08-19 01:48:00,65.2,62.0,30.12,East,84,0.0,2.0,90,0.00,,,0.00,weatherlink.com 1.10,2013-08-19 06:48:00,
2013-08-19 02:04:00,64.9,62.0,30.12,East,84,0.0,0.0,91,0.00,,,0.00,weatherlink.com 1.10,2013-08-19 07:04:00,
2013-08-19 02:19:00,64.7,62.0,30.12,East,84,0.0,0.0,92,0.00,,,0.00,weatherlink.com 1.10,2013-08-19 07:19:00,
2013-08-19 02:34:00,64.5,62.0,30.12,East,84,0.0,0.0,92,0.00,,,0.00,weatherlink.com 1.10,2013-08-19 07:34:00,
2013-08-19 02:49:00,64.1,62.0,30.12,East,84,2.0,3.0,93,0.00,,,0.00,weatherlink.com 1.10,2013-08-19 07:49:00,
2013-08-19 03:04:00,63.7,62.0,30.12,East,84,0.0,0.0,93,0.00,,,0.00,weatherlink.com 1.10,2013-08-19 08:04:00,
2013-08-19 03:19:00,63.5,62.0,30.12,East,84,0.0,3.0,94,0.00,,,0.00,weatherlink.com 1.10,2013-08-19 08:19:00,
2013-08-19 03:34:00,63.3,62.0,30.12,East,84,0.0,0.0,94,0.00,,,0.00,weatherlink.com 1.10,2013-08-19 08:34:00,
2013-08-19 03:49:00,63.2,62.0,30.12,East,84,0.0,0.0,95,0.00,,,0.00,weatherlink.com 1.10,2013-08-19 08:49:00,
2013-08-19 04:04:00,63.3,62.0,30.11,East,84,0.0,2.0,95,0.00,,,0.00,weatherlink.com 1.10,2013-08-19 09:04:00,
2013-08-19 04:19:00,63.1,62.0,30.11,East,84,0.0,1.0,96,0.00,,,0.00,weatherlink.com 1.10,2013-08-19 09:19:00,
2013-08-19 04:34:00,62.9,62.0,30.11,East,84,0.0,0.0,96,0.00,,,0.00,weatherlink.com 1.10,2013-08-19 09:34:00,
2013-08-19 04:49:00,62.9,62.0,30.11,East,84,0.0,1.0,96,0.00,,,0.00,weatherlink.com 1.10,2013-08-19 09:49:00,
2013-08-19 05:04:00,62.8,62.0,30.11,East,84,0.0,1.0,96,0.00,,,0.00,weatherlink.com 1.10,2013-08-19 10:04:00,
2013-08-19 05:19:00,62.6,62.0,30.11,East,84,0.0,0.0,97,0.00,,,0.00,weatherlink.com 1.10,2013-08-19 10:19:00,
2013-08-19 05:34:00,62.3,62.0,30.11,East,84,0.0,0.0,97,0.00,,,0.00,weatherlink.com 1.10,2013-08-19 10:34:00,
2013-08-19 05:49:00,61.9,61.0,30.11,East,84,2.0,3.0,97,0.00,,,0.00,weatherlink.com 1.10,2013-08-19 10:49:00,
2013-08-19 06:04:00,61.6,61.0,30.11,East,84,2.0,2.0,97,0.00,,,0.00,weatherlink.com 1.10,2013-08-19 11:04:00,
2013-08-19 06:19:00,61.6,61.0,30.11,East,84,0.0,0.0,97,0.00,,,0.00,weatherlink.com 1.10,2013-08-19 11:19:00,
2013-08-19 06:34:00,61.5,61.0,30.12,East,84,0.0,0.0,98,0.00,,,0.00,weatherlink.com 1.10,2013-08-19 11:34:00,
2013-08-19 06:49:00,61.8,61.0,30.13,East,84,0.0,0.0,97,0.00,,,0.00,weatherlink.com 1.10,2013-08-19 11:49:00,
2013-08-19 07:04:00,62.3,62.0,30.12,East,84,0.0,0.0,98,0.00,,,0.00,weatherlink.com 1.10,2013-08-19 12:04:00,
2013-08-19 07:19:00,63.3,63.0,30.12,East,84,0.0,0.0,98,0.00,,,0.00,weatherlink.com 1.10,2013-08-19 12:19:00,
2013-08-19 07:34:00,63.6,63.0,30.13,East,84,0.0,0.0,98,0.00,,,0.00,weatherlink.com 1.10,2013-08-19 12:34:00,
2013-08-19 07:49:00,64.1,63.0,30.13,East,84,0.0,1.0,97,0.00,,,0.00,weatherlink.com 1.10,2013-08-19 12:49:00,
2013-08-19 08:04:00,65.0,64.0,30.13,East,84,2.0,3.0,97,0.00,,,0.00,weatherlink.com 1.10,2013-08-19 13:04:00,
2013-08-19 08:19:00,66.3,66.0,30.14,ESE,113,1.0,3.0,97,0.00,,,0.00,weatherlink.com 1.10,2013-08-19 13:19:00,
2013-08-19 08:34:00,68.1,67.0,30.14,ESE,116,0.0,3.0,95,0.00,,,0.00,weatherlink.com 1.10,2013-08-19 13:34:00,
2013-08-19 08:49:00,70.0,67.0,30.14,SE,126,1.0,4.0,89,0.00,,,0.00,weatherlink.com 1.10,2013-08-19 13:49:00,
2013-08-19 09:04:00,71.9,68.0,30.14,SE,135,4.0,4.0,86,0.00,,,0.00,weatherlink.com 1.10,2013-08-19 14:04:00,
2013-08-19 09:19:00,73.1,67.0,30.14,South,178,5.0,6.0,81,0.00,,,0.00,weatherlink.com 1.10,2013-08-19 14:19:00,
2013-08-19 09:34:00,73.4,67.0,30.14,SSW,208,3.0,7.0,81,0.00,,,0.00,weatherlink.com 1.10,2013-08-19 14:34:00,
2013-08-19 09:49:00,74.3,67.0,30.14,SSW,202,3.0,6.0,79,0.00,,,0.00,weatherlink.com 1.10,2013-08-19 14:49:00,
2013-08-19 10:04:00,74.9,67.0,30.14,SW,223,2.0,7.0,75,0.00,,,0.00,weatherlink.com 1.10,2013-08-19 15:04:00,
2013-08-19 10:19:00,76.1,68.0,30.14,SE,144,4.0,6.0,76,0.00,,,0.00,weatherlink.com 1.10,2013-08-19 15:19:00,
2013-08-19 10:34:00,76.4,67.0,30.14,SSW,211,4.0,5.0,72,0.00,,,0.00,weatherlink.com 1.10,2013-08-19 15:34:00,
2013-08-19 10:50:00,77.8,67.0,30.15,SSW,209,2.0,7.0,69,0.00,,,0.00,weatherlink.com 1.10,2013-08-19 15:50:00,
2013-08-19 11:05:00,77.6,66.0,30.15,SSW,192,3.0,5.0,68,0.00,,,0.00,weatherlink.com 1.10,2013-08-19 16:05:00,
2013-08-19 11:20:00,78.4,66.0,30.15,SSW,209,0.0,6.0,65,0.00,,,0.00,weatherlink.com 1.10,2013-08-19 16:20:00,
2013-08-19 11:35:00,79.6,66.0,30.15,WSW,240,2.0,7.0,64,0.00,,,0.00,weatherlink.com 1.10,2013-08-19 16:35:00,
2013-08-19 11:50:00,79.7,65.0,30.14,SSW,195,3.0,7.0,62,0.00,,,0.00,weatherlink.com 1.10,2013-08-19 16:50:00,
2013-08-19 12:05:00,80.0,67.0,30.14,South,175,0.0,5.0,64,0.00,,,0.00,weatherlink.com 1.10,2013-08-19 17:05:00,
2013-08-19 12:20:00,79.3,66.0,30.13,South,190,2.0,5.0,64,0.00,,,0.00,weatherlink.com 1.10,2013-08-19 17:20:00,
2013-08-19 12:35:00,80.6,66.0,30.13,South,190,4.0,7.0,62,0.00,,,0.00,weatherlink.com 1.10,2013-08-19 17:35:00,
2013-08-19 12:50:00,80.7,65.0,30.13,South,178,2.0,6.0,59,0.00,,,0.00,weatherlink.com 1.10,2013-08-19 17:50:00,
2013-08-19 13:05:00,82.2,66.0,30.12,SW,225,3.0,7.0,58,0.00,,,0.00,weatherlink.com 1.10,2013-08-19 18:05:00,
2013-08-19 13:20:00,82.5,67.0,30.12,WSW,238,4.0,7.0,59,0.00,,,0.00,weatherlink.com 1.10,2013-08-19 18:20:00,
2013-08-19 13:35:00,81.6,67.0,30.12,South,183,1.0,5.0,62,0.00,,,0.00,weatherlink.com 1.10,2013-08-19 18:35:00,
2013-08-19 13:50:00,82.6,67.0,30.12,South,175,3.0,6.0,60,0.00,,,0.00,weatherlink.com 1.10,2013-08-19 18:50:00,
2013-08-19 14:05:00,82.2,66.0,30.11,SSE,161,0.0,5.0,59,0.00,,,0.00,weatherlink.com 1.10,2013-08-19 19:05:00,
2013-08-19 14:20:00,82.3,66.0,30.11,SW,227,2.0,5.0,58,0.00,,,0.00,weatherlink.com 1.10,2013-08-19 19:20:00,
2013-08-19 14:35:00,82.1,65.0,30.10,South,171,1.0,3.0,57,0.00,,,0.00,weatherlink.com 1.10,2013-08-19 19:35:00,
2013-08-19 14:50:00,81.4,65.0,30.10,SW,229,0.0,2.0,57,0.00,,,0.00,weatherlink.com 1.10,2013-08-19 19:50:00,
2013-08-19 15:05:00,82.6,65.0,30.09,SE,142,2.0,3.0,55,0.00,,,0.00,weatherlink.com 1.10,2013-08-19 20:05:00,
2013-08-19 15:20:00,83.5,66.0,30.08,East,82,5.0,8.0,55,0.00,,,0.00,weatherlink.com 1.10,2013-08-19 20:20:00,
2013-08-19 15:35:00,83.0,65.0,30.08,East,98,3.0,5.0,55,0.00,,,0.00,weatherlink.com 1.10,2013-08-19 20:35:00,
2013-08-19 15:50:00,84.2,64.0,30.08,South,171,3.0,6.0,51,0.00,,,0.00,weatherlink.com 1.10,2013-08-19 20:50:00,
2013-08-19 16:05:00,85.5,64.0,30.07,West,268,3.0,7.0,49,0.00,,,0.00,weatherlink.com 1.10,2013-08-19 21:05:00,
2013-08-19 16:20:00,82.5,64.0,30.07,South,184,4.0,7.0,54,0.00,,,0.00,weatherlink.com 1.10,2013-08-19 21:20:00,
2013-08-19 16:35:00,82.5,65.0,30.07,South,169,3.0,4.0,56,0.00,,,0.00,weatherlink.com 1.10,2013-08-19 21:35:00,
2013-08-19 16:50:00,82.0,66.0,30.07,SSW,209,1.0,4.0,59,0.00,,,0.00,weatherlink.com 1.10,2013-08-19 21:50:00,
2013-08-19 17:05:00,82.2,67.0,30.06,SSW,210,1.0,3.0,60,0.00,,,0.00,weatherlink.com 1.10,2013-08-19 22:05:00,
2013-08-19 17:20:00,84.2,65.0,30.06,South,169,0.0,4.0,53,0.00,,,0.00,weatherlink.com 1.10,2013-08-19 22:20:00,
2013-08-19 17:35:00,83.9,66.0,30.06,South,182,0.0,5.0,55,0.00,,,0.00,weatherlink.com 1.10,2013-08-19 22:35:00,
2013-08-19 17:50:00,82.6,66.0,30.05,ESE,114,3.0,5.0,57,0.00,,,0.00,weatherlink.com 1.10,2013-08-19 22:50:00,
2013-08-19 18:05:00,81.3,67.0,30.05,ESE,114,1.0,3.0,63,0.00,,,0.00,weatherlink.com 1.10,2013-08-19 23:05:00,
2013-08-19 18:20:00,80.6,68.0,30.05,ESE,114,0.0,2.0,65,0.00,,,0.00,weatherlink.com 1.10,2013-08-19 23:20:00,
2013-08-19 18:35:00,79.9,68.0,30.05,ESE,115,3.0,3.0,67,0.00,,,0.00,weatherlink.com 1.10,2013-08-19 23:35:00,
2013-08-19 18:50:00,79.4,67.0,30.05,SE,132,2.0,4.0,67,0.00,,,0.00,weatherlink.com 1.10,2013-08-19 23:50:00,
2013-08-19 19:05:00,78.6,68.0,30.05,SE,129,1.0,3.0,69,0.00,,,0.00,weatherlink.com 1.10,2013-08-20 00:05:00,
2013-08-19 19:20:00,78.1,68.0,30.05,SE,129,1.0,2.0,72,0.00,,,0.00,weatherlink.com 1.10,2013-08-20 00:20:00,
2013-08-19 19:35:00,77.2,68.0,30.05,SE,129,0.0,3.0,72,0.00,,,0.00,weatherlink.com 1.10,2013-08-20 00:35:00,
2013-08-19 19:50:00,76.0,67.0,30.05,SE,129,0.0,2.0,74,0.00,,,0.00,weatherlink.com 1.10,2013-08-20 00:50:00,
2013-08-19 20:05:00,74.8,67.0,30.05,SE,129,0.0,2.0,76,0.00,,,0.00,weatherlink.com 1.10,2013-08-20 01:05:00,
2013-08-19 20:20:00,73.9,67.0,30.05,SE,129,0.0,0.0,78,0.00,,,0.00,weatherlink.com 1.10,2013-08-20 01:20:00,
2013-08-19 20:35:00,73.1,67.0,30.05,SE,129,0.0,0.0,80,0.00,,,0.00,weatherlink.com 1.10,2013-08-20 01:35:00,
2013-08-19 20:50:00,72.4,66.0,30.05,SE,129,0.0,1.0,81,0.00,,,0.00,weatherlink.com 1.10,2013-08-20 01:50:00,
2013-08-19 21:05:00,72.0,66.0,30.06,SE,129,0.0,0.0,82,0.00,,,0.00,weatherlink.com 1.10,2013-08-20 02:05:00,
2013-08-19 21:20:00,71.5,66.0,30.06,SE,129,0.0,1.0,83,0.00,,,0.00,weatherlink.com 1.10,2013-08-20 02:20:00,
2013-08-19 21:35:00,71.1,66.0,30.07,SE,129,0.0,1.0,83,0.00,,,0.00,weatherlink.com 1.10,2013-08-20 02:35:00,
2013-08-19 21:50:00,70.6,66.0,30.07,SE,129,0.0,2.0,84,0.00,,,0.00,weatherlink.com 1.10,2013-08-20 02:50:00,
2013-08-19 22:05:00,69.7,65.0,30.07,SE,129,0.0,1.0,86,0.00,,,0.00,weatherlink.com 1.10,2013-08-20 03:05:00,
2013-08-19 22:20:00,69.2,65.0,30.08,SE,129,0.0,0.0,87,0.00,,,0.00,weatherlink.com 1.10,2013-08-20 03:20:00,
2013-08-19 22:36:00,68.6,65.0,30.08,SE,129,0.0,0.0,88,0.00,,,0.00,weatherlink.com 1.10,2013-08-20 03:36:00,
2013-08-19 22:51:00,68.4,65.0,30.08,SE,129,0.0,0.0,88,0.00,,,0.00,weatherlink.com 1.10,2013-08-20 03:51:00,
2013-08-19 23:06:00,68.1,65.0,30.09,SE,129,1.0,1.0,88,0.00,,,0.00,weatherlink.com 1.10,2013-08-20 04:06:00,
2013-08-19 23:21:00,68.1,65.0,30.09,SE,129,0.0,0.0,88,0.00,,,0.00,weatherlink.com 1.10,2013-08-20 04:21:00,
2013-08-19 23:36:00,67.8,64.0,30.09,SE,129,0.0,0.0,88,0.00,,,0.00,weatherlink.com 1.10,2013-08-20 04:36:00,
2013-08-19 23:51:00,67.6,64.0,30.09,SE,129,0.0,0.0,88,0.00,,,0.00,weatherlink.com 1.10,2013-08-20 04:51:00,